Location: Borger
(52.9222°N, 6.7926°E)
Time: 08:24:55
(UTC+00:00)

MetOp-A - Pass Details

Date: 15 May 2026
Orbit: 519 x 765 km, 98.3° (Epoch: 6 June)

Event Time Altitude Azimuth Distance (km) Brightness Sun altitude
Exits shadow 23:42:46 34° 195° (SSW) 1,175 4.4 -18.0°
Maximum altitude 23:44:41 57° 258° (WSW) 827 4.0 -17.9°
Drops below altitude 10° 23:49:15 10° 338° (NNW) 2,107 7.2 -17.9°
Sets 23:51:27 0° 342° (NNW) 2,984 8.3 -17.9°
